Find Starlink 38178

NORAD ID: 100201 Int'l Des: 2026-175 Owner: SPXS Country: US Constellation: starlink operational

Aktuelle Ansicht

3D-Globus wird geladen...

About Starlink 38178

Starlink 38178 (NORAD 100201) is a starlink constellation satellite launched Aug 1, 2026 by SPXS of US. with a mass of 575.00 kg.

Nächste Überflüge

Passes for default location (London). Set your location on the main map for personalized predictions.

Höhenverlauf

Loading altitude history...

Zweizeiliger Elementsatz

1 A0201U 26175Y 26223.84941192 -.00806148 00000-0 -50105-2 0 9999
2 A0201 97.2837 64.3197 0001255 111.6111 248.5290 15.78998086 2931
Epoch: 11. Aug. 2026 • Age: 13 hours

Aktueller Status

Höhe 353.0 km
Apogäum / Perigäum N/A
Geschwindigkeit 7.70 km/s
Subsatellitenpunkt -43.19°S, 134.68°E
Startdatum 1. Aug. 2026
Alter 11 days
Typ internet

Technische Details

Klassifizierung Payload
Masse 575.00 kg
Trockenmasse 530.00 kg
Gesamtmasse 575.00 kg
Länge 0.30 m
Durchmesser 4.10 m
Spannweite 29.00 m
Form Box + pan
Hersteller SPXS
Bus-Typ Starlink V2MO
Phasenstatus In Orbit
Besitzer/Staat SPXS/US

Most Searched